Погода в Ламиданде

Непал     27°14′56″N   86°41′24″E
темп.,
°C
ветер,
м/с
пор.,
м/с
влажн.,
%
обл.,
%
осадки,
мм/ч
давл.,
гПа
погр.,
м
19 апреля, пн
пн1923:45+15св43580 0.7 101238
02:45+14св33530 0.0 101036
05:45+13св33490 0.0 101033
08:45+22юз22270 0.0 10101148
11:45+26юз45193 0.0 10083015
14:45+27юз552040 0.0 10053115
17:45+24юз332254 0.0 1005319
20:45+19св33354 0.0 100929
20 апреля, вт
вт2023:45+18св33401 0.0 100933
02:45+17св43350 0.0 100838
05:45+16св43330 0.0 100940
08:45+25юз33190 0.0 10091449
11:45+29юз57142 0.0 10073460
14:45+29юз56189 0.0 10063295
17:45+27юз341995 0.0 1006231
20:45+20св332712 0.0 101020
21 апреля, ср
ср2123:45+19св432845 0.0 101037
02:45+18св33285 0.0 101031
05:45+17св33322 0.0 101126
08:45+26ююз32241 0.0 10111366
11:45+30юз571730 0.0 10093259
14:45+31юз661884 0.0 10063735
17:45+17св5662100 0.8 1012196
20:45+20св4450100 0.1 101280
22 апреля, чт
чт2223:45+19св4440100 0.1 101143
02:45+19св3232100 0.0 101027
05:45+19св3332100 0.0 101243
08:45+27зюз2518100 0.0 10121575
11:45+29юз51016100 0.0 10094402
14:45+30юз6916100 0.0 10064370
17:45+25зюз2225100 0.1 1008114
20:45+20ссв3334100 0.0 101130
23 апреля, пт
пт2323:45+18ссв4429100 0.0 101151
02:45+17ссв4424100 0.0 100948
05:45+17ссв4422100 0.0 101147
08:45+26юз231244 0.0 10101510
11:45+30юз56980 0.0 10083138
14:45+30юз561292 0.0 10053094
17:45+27юз35144 0.0 1006292
20:45+20св33212 0.0 101031